星链-37145(STARLINK-37145)

导读

STARLINK-37145(NORAD编号68548)是美国太空探索技术公司(SpaceX)“星链”(Starlink)星座中的一颗第二代迷你卫星(V2Mini),主要用于提供全球卫星互联网服务。该卫星运行于近地轨道,属于SpaceX星链项目大规模组网的一部分,依托星链星座低轨布局,为偏远地区、海上及航空场景等提供宽带互联网接入服务。截至公开信息显示,该卫星目前仍正常在轨运行,星链星座整体计划为全球提供低延迟、高速率的卫星互联网覆盖,此类卫星后续将逐步再入大气层完成销毁,符合SpaceX的太空垃圾治理规划。

Basic Information
目录编号:
68548
目录名称:
STARLINK-37145
国际标识:
2026-070G
轨道中心:
EARTH
卫星名称:
星链-37145
卫星全名:
星链-37145(STARLINK-37145)
卫星状态:
在轨 (已飞行162 天)
发射日期:
2026-04-02 UTC
国别 :
美国 (US)
星等 :
--
This satellite is enrolled in the Space Conjunction Data Service (SCDS) and the current flight risk assessment level is: No High Risk
Orbit Information
数据来源 国际轨道数据
星历时间: 2026-09-11T08:00:04+0800
20小时前
查看轨道信息
半长轴: 6840.833km
偏心率: 0.000143
轨道倾角: 53.157°
近地点辐角 103.846°
升交点赤经 218.300°
平近点角 359.817°
近地点: 461.717km
远地点: 463.675km
周期: 93.848分钟
每日圈数: 15.344026
Detailed Information
固有亮度:
5
最大亮度:
2.5
卫星平台:
Starlink V1.0
覆盖范围:
全球
运营商:
太空探索技术公司
运营商所在国:
美国
制造商(研发单位):
太空探索技术公司
制造商所在国:
美国
使用方式:
暂无
Satellite Introduction
Starlink 计划是 SpaceX 推出的全球卫星互联网项目,通过发射低轨道卫星,为全球尤其是偏远地区提供高速、低延迟的互联网服务。自 2019 年起,Starlink 已部署数千颗卫星,旨在缩小全球数字鸿沟,推动互联网普及。该项目还为军事、航空等行业提供通信支持,带来广泛经济效益。
2D Orbit Map
3D Orbit Map
Orbit Altitude Analysis Chart
Orbit Inclination Analysis Chart
Orbit Comprehensive Analysis Chart
View Comprehensive Chart
Conjunction Data List
Event ID Objects TCA Miss Dist (km) Collision Risk Probability Collision Risk Index (CRI) Action
CDM_260913-134306-507806-854821
2026-09-13T
13:43:21+0000
1.200 km
极远距离
4.344809E-6 低风险 0.48
CDM_260912-150506-805206-854821
2026-09-12T
15:05:15+0000
1.537 km
极远距离
2.988842E-6 低风险 0.45
CDM_260912-111006-805206-854821
2026-09-12T
11:10:47+0000
2.415 km
极远距离
9.850661E-7 极低风险 0.35
CDM_260913-143006-507806-854821
2026-09-13T
14:30:15+0000
2.414 km
极远距离
6.917237E-7 极低风险 0.32
Miss Distance Evolution Trend with All Objects
Collision Probability Evolution Trend with All Objects